Orbital Elements at Epoch 2459200.5 (2020-Dec-17.0) TDB
Reference: JPL 13 (heliocentric ecliptic J2000)
Element | Value | Uncertainty (1-sigma) | Units |
e | .1538744536590907 | 7.2618e-08 | |
a | 2.472665159709813 | 2.0237e-08 | au |
q | 2.092185159177598 | 1.8666e-07 | au |
i | 6.549651940649381 | 7.5797e-06 | deg |
node | 50.42300046178394 | 5.6373e-05 | deg |
peri | 347.2786225227102 | 6.2986e-05 | deg |
M | 317.6886281985737 | 3.1721e-05 | deg |
tp | 2459367.417163741484 (2021-Jun-01.91716374) | 0.00012671 | TDB |
period | 1420.189806866736 3.89 | 1.7435e-05 4.773e-08 | d yr |
n | .2534872439299099 | 3.1119e-09 | deg/d |
Q | 2.853145160242029 | 2.3351e-08 | au |
|
| | Orbit Determination Parameters
Additional Information
|